This is the latest recevied weather packets stored in our database for station/object N3FYI-5. If no packets are shown the sender has not sent any weather packets the latest 10 day(s).
| Time | Temp. | Humidity | Pressure | Rain* | Wind** | Luminosity | Snow |
|---|---|---|---|---|---|---|---|
| 1777832878 | 11.11° C | 42% | 1023.1 hPa | 0 mm | - | - | - |
| 1777832398 | 12.22° C | 41% | 1023 hPa | 0 mm | - | - | - |
| 1777831918 | 12.22° C | 42% | 1023 hPa | 0 mm | - | - | - |
| 1777831438 | 11.67° C | 42% | 1023 hPa | 0 mm | - | - | - |
| 1777830958 | 11.11° C | 45% | 1023.1 hPa | 0 mm | - | - | - |
| 1777830478 | 11.11° C | 41% | 1023.2 hPa | 0 mm | - | - | - |
| 1777829999 | 11.67° C | 42% | 1023.3 hPa | 0 mm | - | - | - |
| 1777829518 | 11.67° C | 42% | 1023.4 hPa | 0 mm | - | - | - |
| 1777829038 | 11.11° C | 45% | 1023.3 hPa | 0 mm | - | - | - |
| 1777828558 | 10° C | 44% | 1023.4 hPa | 0 mm | - | - | - |
| 1777828078 | 10° C | 44% | 1023.4 hPa | 0 mm | - | - | - |
| 1777827598 | 10° C | 43% | 1023.4 hPa | 0 mm | - | - | - |
| 1777827118 | 10.56° C | 42% | 1023.5 hPa | 0 mm | - | - | - |
| 1777826638 | 10.56° C | 43% | 1023.5 hPa | 0 mm | - | - | - |
| 1777826158 | 9.44° C | 44% | 1023.7 hPa | 0 mm | - | - | - |
| 1777825678 | 10° C | 42% | 1023.8 hPa | 0 mm | - | - | - |
| 1777825197 | 10° C | 41% | 1023.7 hPa | 0 mm | - | - | - |
| 1777824717 | 10° C | 43% | 1023.8 hPa | 0 mm | - | - | - |
| 1777824237 | 10° C | 41% | 1024 hPa | 0 mm | - | - | - |
| 1777823757 | 9.44° C | 44% | 1024 hPa | 0 mm | - | - | - |
| 1777823288 | 9.44° C | 44% | 1024.2 hPa | 0 mm | - | - | - |
| 1777822798 | 8.89° C | 47% | 1024.3 hPa | 0 mm | - | - | - |
| 1777822318 | 8.33° C | 48% | 1024.4 hPa | 0 mm | - | - | - |
| 1777821838 | 8.33° C | 47% | 1024.4 hPa | 0 mm | - | - | - |
| 1777821358 | 7.78° C | 48% | 1024.5 hPa | 0 mm | - | - | - |
* Rain latest hour (hover to see other rain measurements)
** Current wind speed in m/s (hover to see current wind gust speed)